1514329200.46,12813,9.31,72558.3,-8.45,-21.23,-22.97,0,*5C
1514329201.72,12814,9.31,72554.3,-8.43,-21.23,-23.13,0,*50
1514329202.95,12815,9.31,72558.0,-8.43,-21.17,-23.13,0,*56
1514329204.21,12816,9.31,72556.0,-8.43,-21.33,-23.13,0,*53
1514329205.45,12817,9.31,72558.8,-8.45,-21.23,-23.13,0,*55
1514329206.7,12818,9.31,72558.0,-8.45,-21.23,-23.09,0,*51
1514329207.94,12819,9.31,72554.3,-8.45,-21.23,-23.13,0,*5B
1514329209.21,12820,9.31,72556.0,-8.45,-21.23,-23.23,0,*52
1514329210.48,12821,9.31,72554.8,-8.45,-21.23,-23.23,0,*53
1514329211.74,12822,9.31,72552.0,-8.45,-21.33,-23.29,0,*5B
1514329213.02,12823,9.31,72554.3,-8.43,-21.23,-23.29,0,*5D
1514329214.26,12824,9.31,72552.5,-8.45,-21.23,-23.39,0,*5D
1514329215.51,12825,9.31,72554.5,-8.45,-21.33,-23.43,0,*50
1514329216.77,12826,9.31,72554.5,-8.43,-21.33,-23.43,0,*55
1514329218.02,12827,9.31,72552.0,-8.45,-21.33,-23.43,0,*52
1514329219.24,12828,9.31,72556.3,-8.43,-21.39,-23.59,0,*5A
1514329220.48,12829,9.31,72554.3,-8.45,-21.33,-23.59,0,*57
1514329221.74,12830,9.31,72556.3,-8.45,-21.33,-23.65,0,*50
1514329222.98,12831,9.31,72556.3,-8.45,-21.39,-23.65,0,*5B
1514329224.26,12832,9.31,72554.0,-8.47,-21.53,-23.69,0,*5A
1514329225.5,12833,9.31,72556.0,-8.45,-21.39,-23.65,0,*59
1514329226.78,12834,9.31,72552.0,-8.47,-21.53,-23.69,0,*5C
1514329228.04,12835,9.31,72556.5,-8.47,-21.39,-23.69,0,*51
1514329229.27,12836,9.31,72556.8,-8.47,-21.43,-23.79,0,*5E
1514329230.56,12837,9.31,72556.0,-8.47,-21.53,-23.85,0,*5D
1514329231.83,12838,9.31,72556.0,-8.47,-21.53,-23.79,0,*51
1514329233.09,12839,9.31,72558.0,-8.47,-21.43,-23.85,0,*52
1514329234.35,12840,9.31,72558.5,-8.47,-21.53,-23.79,0,*5E
1514329235.64,12841,9.31,72554.0,-8.47,-21.53,-23.85,0,*5C
1514329236.9,12842,9.31,72558.3,-8.49,-21.53,-23.95,0,*50
1514329238.16,12843,9.31,72552.8,-8.49,-21.53,-23.95,0,*51
1514329239.45,12844,9.31,72558.5,-8.47,-21.53,-23.99,0,*54
1514329240.71,12845,9.31,72556.5,-8.49,-21.53,-23.99,0,*5B
1514329241.97,12846,9.31,72556.0,-8.49,-21.53,-23.99,0,*58
1514329243.26,12847,9.31,72558.3,-8.47,-21.53,-23.99,0,*57
1514329244.54,12848,9.31,72558.8,-8.47,-21.53,-24.15,0,*5B
1514329245.82,12849,9.31,72558.0,-8.47,-21.57,-24.11,0,*5A
1514329247.1,12850,9.31,72554.8,-8.47,-21.57,-24.15,0,*56
1514329248.39,12851,9.31,72556.0,-8.47,-21.57,-24.25,0,*54
1514329249.64,12852,9.31,72556.3,-8.49,-21.57,-24.11,0,*5E
1514329250.9,12853,9.31,72554.0,-8.49,-21.57,-24.15,0,*5B
1514329252.17,12854,9.31,72558.8,-8.47,-21.57,-24.15,0,*52
1514329253.41,12855,9.31,72554.3,-8.49,-21.57,-24.31,0,*5B
1514329254.64,12856,9.31,72552.3,-8.49,-21.57,-24.31,0,*58
1514329255.9,12857,9.31,72558.5,-8.47,-21.57,-24.31,0,*57
1514329257.18,12858,9.31,72558.3,-8.47,-21.57,-24.25,0,*5D
1514329258.47,12859,9.31,72556.0,-8.47,-21.57,-24.41,0,*5E
1514329259.73,12860,9.31,72558.3,-8.47,-21.63,-24.41,0,*53
1514329261.01,12861,9.31,72552.8,-8.47,-21.57,-24.41,0,*55
1514329262.24,12862,9.31,72556.5,-8.49,-21.57,-24.47,0,*5E
1514329263.5,12863,9.31,72556.3,-8.49,-21.57,-24.41,0,*59
1514329264.74,12864,9.31,72556.0,-8.47,-21.63,-24.47,0,*51
1514329265.97,12865,9.31,72556.5,-8.47,-21.63,-24.57,0,*51
1514329267.23,12866,9.31,72556.5,-8.47,-21.57,-24.47,0,*54
1514329268.49,12867,9.31,72554.5,-8.47,-21.57,-24.47,0,*55
1514329269.72,12868,9.31,72556.0,-8.47,-21.63,-24.61,0,*59
1514329270.93,12869,9.31,72554.0,-8.49,-21.73,-24.61,0,*57
1514329272.14,12870,9.31,72552.8,-8.49,-21.63,-24.61,0,*5E
1514329273.38,12871,9.31,72556.5,-8.47,-21.73,-24.61,0,*50
1514329274.62,12872,9.31,72556.3,-8.47,-21.77,-24.61,0,*57
1514329275.85,12873,9.31,72556.3,-8.47,-21.63,-24.61,0,*53
1514329277.09,12874,9.31,72558.3,-8.47,-21.73,-24.61,0,*55
1514329278.3,12875,9.31,72554.8,-8.49,-21.63,-24.61,0,*5B
1514329279.53,12876,9.31,72556.8,-8.49,-21.57,-24.61,0,*5F
1514329280.76,12877,9.31,72554.5,-8.47,-21.63,-24.61,0,*57
1514329281.97,12878,9.31,72554.3,-8.49,-21.73,-24.61,0,*57
1514329283.21,12879,9.31,72554.0,-8.47,-21.73,-24.61,0,*58
1514329284.45,12880,9.31,72554.5,-8.47,-21.63,-24.61,0,*5F
1514329285.68,12881,9.31,72558.3,-8.47,-21.63,-24.61,0,*5E
1514329286.92,12882,9.31,72554.5,-8.47,-21.63,-24.61,0,*5D
1514329288.15,12883,9.31,72558.3,-8.47,-21.63,-24.77,0,*5B
1514329289.4,12884,9.31,72552.5,-8.47,-21.63,-24.67,0,*5D
1514329290.66,12885,9.31,72558.5,-8.47,-21.63,-24.67,0,*5C
1514329291.9,12886,9.31,72556.0,-8.45,-21.57,-24.61,0,*5C
1514329293.14,12887,9.31,72556.3,-8.45,-21.57,-24.61,0,*5D
1514329294.41,12888,9.31,72556.8,-8.45,-21.57,-24.71,0,*53
1514329295.67,12889,9.31,72556.8,-8.45,-21.57,-24.71,0,*52
1514329296.92,12890,9.31,72558.3,-8.45,-21.67,-24.77,0,*5F
1514329298.16,12891,9.31,72558.0,-8.45,-21.67,-24.77,0,*5E
1514329299.42,12892,9.31,72556.3,-8.43,-21.67,-24.77,0,*5B
1514329300.71,12893,9.31,72552.3,-8.43,-21.67,-24.87,0,*55
1514329301.97,12894,9.31,72554.0,-8.43,-21.67,-24.77,0,*5D
1514329303.23,12895,9.31,72560.0,-8.43,-21.73,-24.87,0,*56
1514329304.49,12896,9.31,72558.8,-8.41,-21.67,-24.83,0,*56
1514329305.76,12897,9.31,72556.3,-8.45,-21.67,-24.87,0,*57
1514329307.02,12898,9.31,72556.3,-8.41,-21.67,-24.83,0,*58
1514329308.23,12899,9.31,72554.5,-8.41,-21.77,-24.97,0,*5D
1514329309.48,12900,9.31,72558.3,-8.43,-21.83,-24.93,0,*51
1514329310.74,12901,9.31,72558.8,-8.43,-21.73,-25.03,0,*57
1514329311.98,12902,9.31,72552.5,-8.45,-21.83,-25.19,0,*56
1514329313.25,12903,9.31,72558.8,-8.43,-21.87,-25.09,0,*54
1514329314.51,12904,9.31,72552.8,-8.43,-21.83,-25.09,0,*57
1514329315.77,12905,9.31,72558.0,-8.39,-21.83,-25.13,0,*50
1514329317.0,12906,9.31,72558.3,-8.41,-21.83,-25.13,0,*5C
1514329318.22,12907,9.31,72558.8,-8.41,-21.93,-25.19,0,*56
1514329319.42,12908,9.31,72554.8,-8.41,-22.07,-25.35,0,*59
1514329320.7,12909,9.31,72554.5,-8.39,-21.97,-25.29,0,*50
1514329321.96,12910,9.31,72556.5,-8.41,-21.97,-25.29,0,*57
1514329323.22,12911,9.31,72560.3,-8.41,-21.97,-25.29,0,*56
1514329324.44,12912,9.31,72554.5,-8.41,-22.07,-25.45,0,*55
1514329325.69,12913,9.31,72556.3,-8.39,-22.07,-25.45,0,*5B
1514329326.93,12914,9.31,72556.3,-8.41,-22.21,-25.49,0,*5B
1514329328.15,12915,9.31,72560.3,-8.41,-22.27,-25.49,0,*5C
1514329329.39,12916,9.31,72558.0,-8.41,-22.27,-25.55,0,*52
1514329330.6,12917,9.31,72558.3,-8.41,-22.07,-25.49,0,*5C
1514329331.82,12918,9.31,72554.3,-8.41,-22.07,-25.45,0,*5F
1514329333.09,12919,9.31,72558.5,-8.41,-22.21,-25.55,0,*5B
1514329334.33,12920,9.31,72550.5,-8.41,-22.21,-25.49,0,*5C
1514329335.54,12921,9.31,72556.0,-8.41,-22.37,-25.65,0,*54
1514329336.78,12922,9.31,72556.8,-8.39,-22.37,-25.65,0,*58
1514329338.0,12923,9.31,72552.8,-8.41,-22.37,-25.65,0,*56
1514329339.21,12924,9.31,72558.0,-8.41,-22.37,-25.65,0,*51
1514329340.48,12925,9.31,72558.8,-8.39,-22.37,-25.71,0,*5A
1514329341.72,12926,9.31,72552.5,-8.39,-22.37,-25.65,0,*5C
1514329342.96,12927,9.31,72558.3,-8.41,-22.37,-25.71,0,*57
1514329344.17,12928,9.31,72552.8,-8.41,-22.37,-25.65,0,*5D
1514329345.39,12929,9.31,72556.3,-8.41,-22.37,-25.65,0,*5C
1514329346.63,12930,9.31,72554.8,-8.41,-22.41,-25.71,0,*50
1514329347.87,12931,9.31,72558.8,-8.41,-22.27,-25.55,0,*57
1514329349.13,12932,9.31,72556.5,-8.43,-22.31,-25.61,0,*56
1514329350.39,12933,9.31,72552.8,-8.39,-22.27,-25.55,0,*5A
1514329351.63,12934,9.31,72558.0,-8.41,-22.21,-25.49,0,*59
1514329352.88,12935,9.31,72556.0,-8.41,-22.21,-25.49,0,*58
1514329354.12,12936,9.31,72558.3,-8.41,-22.21,-25.49,0,*5B
1514329355.36,12937,9.31,72554.5,-8.41,-22.27,-25.71,0,*57
1514329356.6,12938,9.31,72556.3,-8.41,-22.37,-25.71,0,*59
1514329357.84,12939,9.31,72556.3,-8.39,-22.37,-25.65,0,*52
1514329359.08,12940,9.31,72552.5,-8.39,-22.37,-25.65,0,*5C
1514329360.31,12941,9.31,72554.8,-8.39,-22.37,-25.65,0,*5D
1514329361.58,12942,9.31,72552.3,-8.39,-22.57,-25.97,0,*55
1514329362.81,12943,9.31,72556.5,-8.41,-22.63,-25.97,0,*5C
1514329364.04,12944,9.31,72556.0,-8.39,-22.63,-25.87,0,*55
1514329365.28,12945,9.31,72556.8,-8.39,-22.57,-25.87,0,*53
1514329366.52,12946,9.31,72556.3,-8.41,-22.47,-25.87,0,*5E
1514329367.78,12947,9.31,72554.8,-8.39,-22.41,-25.71,0,*5F
1514329369.04,12948,9.31,72554.8,-8.39,-22.41,-25.71,0,*50
1514329370.28,12949,9.31,72558.8,-8.39,-22.57,-25.87,0,*5F
1514329371.56,12950,9.31,72556.3,-8.39,-22.73,-25.97,0,*50
1514329372.79,12951,9.31,72556.3,-8.39,-22.63,-26.03,0,*5E
1514329374.09,12952,9.31,72556.3,-8.39,-22.47,-25.97,0,*55
1514329375.35,12953,9.31,72552.3,-8.39,-22.47,-25.87,0,*55
1514329376.6,12954,9.31,72554.0,-8.39,-22.47,-25.87,0,*52
1514329377.85,12955,9.31,72556.3,-8.41,-22.57,-25.97,0,*5C
1514329379.12,12956,9.31,72558.8,-8.39,-22.77,-26.03,0,*5C
1514329380.35,12957,9.31,72556.5,-8.39,-22.87,-26.03,0,*52
1514329381.58,12958,9.31,72554.3,-8.41,-22.87,-25.97,0,*5C
1514329382.87,12959,9.31,72556.5,-8.39,-22.77,-26.13,0,*52
1514329384.14,12960,9.31,72554.3,-8.41,-22.77,-26.13,0,*57
1514329385.37,12961,9.31,72556.3,-8.37,-22.73,-25.91,0,*5A
1514329386.65,12962,9.31,72556.0,-8.39,-22.73,-25.97,0,*51
1514329387.88,12963,9.31,72552.8,-8.41,-22.73,-25.87,0,*5E
1514329389.14,12964,9.31,72556.0,-8.41,-22.73,-25.97,0,*58
1514329390.4,12965,9.31,72552.3,-8.41,-22.73,-25.97,0,*59
1514329391.66,12966,9.31,72556.5,-8.39,-22.73,-25.87,0,*54
1514329392.91,12967,9.31,72554.8,-8.39,-22.73,-25.87,0,*55
1514329394.17,12968,9.31,72554.5,-8.39,-22.77,-25.87,0,*5E
1514329395.43,12969,9.31,72554.8,-8.39,-22.73,-25.87,0,*5B
1514329396.69,12970,9.31,72556.3,-8.39,-22.77,-25.87,0,*57
1514329397.95,12971,9.31,72558.0,-8.37,-22.73,-25.75,0,*51
1514329399.19,12972,9.31,72554.3,-8.37,-22.57,-25.75,0,*54
1514329400.46,12973,9.31,72556.5,-8.37,-22.73,-25.75,0,*53
1514329401.69,12974,9.31,72554.8,-8.37,-22.67,-25.75,0,*51
1514329402.9,12975,9.31,72552.8,-8.37,-22.83,-25.91,0,*50
1514329404.15,12976,9.31,72552.8,-8.35,-22.73,-25.91,0,*5E
1514329405.41,12977,9.31,72556.5,-8.37,-22.73,-25.81,0,*5C
1514329406.65,12978,9.31,72552.0,-8.37,-22.67,-25.75,0,*5D
1514329407.88,12979,9.31,72554.0,-8.37,-22.83,-25.81,0,*5D
1514329409.12,12980,9.31,72554.5,-8.37,-22.87,-25.97,0,*58
1514329410.38,12981,9.31,72552.8,-8.35,-22.83,-25.75,0,*53
1514329411.64,12982,9.31,72552.5,-8.35,-22.87,-25.81,0,*5F
1514329412.84,12983,9.31,72556.3,-8.37,-22.87,-25.91,0,*5D
1514329414.06,12984,9.31,72558.0,-8.37,-22.97,-25.91,0,*5B
1514329415.29,12985,9.31,72558.5,-8.37,-22.97,-25.81,0,*5B
1514329416.53,12986,9.31,72552.8,-8.35,-22.97,-25.91,0,*5B
1514329417.76,12987,9.31,72558.0,-8.35,-22.97,-25.91,0,*5A
1514329419.01,12988,9.31,72556.0,-8.37,-22.97,-25.97,0,*51
1514329420.27,12989,9.31,72552.5,-8.35,-23.03,-25.91,0,*58
1514329421.5,12990,9.31,72558.5,-8.37,-22.87,-25.75,0,*55
1514329422.74,12991,9.31,72556.8,-8.37,-22.97,-25.97,0,*59
1514329423.98,12992,9.31,72552.8,-8.35,-22.97,-25.91,0,*5E
1514329425.22,12993,9.31,72554.3,-8.33,-22.83,-25.71,0,*52
1514329426.48,12994,9.31,72550.8,-8.35,-22.87,-25.75,0,*53
1514329427.77,12995,9.31,72556.8,-8.35,-23.03,-25.75,0,*5F
1514329429.03,12996,9.31,72554.0,-8.37,-23.03,-25.81,0,*55
1514329430.32,12997,9.31,72552.8,-8.35,-23.19,-25.97,0,*5A
1514329431.56,12998,9.31,72558.5,-8.35,-23.13,-25.91,0,*59
1514329432.79,12999,9.31,72552.3,-8.35,-23.13,-25.91,0,*58
1514329434.02,13000,9.31,72552.5,-8.35,-23.13,-25.91,0,*50
1514329435.28,13001,9.31,72554.0,-8.35,-23.19,-25.91,0,*5B
1514329436.57,13002,9.31,72554.8,-8.35,-23.19,-25.81,0,*59
1514329437.86,13003,9.31,72556.3,-8.35,-23.29,-25.97,0,*5C
1514329439.15,13004,9.31,72556.0,-8.35,-23.19,-25.81,0,*5F
1514329440.43,13005,9.31,72556.8,-8.35,-23.29,-25.97,0,*5A
1514329441.69,13006,9.31,72552.5,-8.35,-23.33,-25.91,0,*54
1514329442.92,13007,9.31,72556.5,-8.35,-23.39,-25.91,0,*5F
1514329444.21,13008,9.31,72554.0,-8.35,-23.33,-25.97,0,*5C
1514329445.5,13009,9.31,72554.3,-8.35,-23.33,-25.97,0,*5D
1514329446.76,13010,9.31,72552.3,-8.35,-23.33,-25.91,0,*53
1514329448.04,13011,9.31,72556.8,-8.35,-23.33,-25.97,0,*54
1514329449.25,13012,9.31,72554.5,-8.37,-23.39,-25.91,0,*59
1514329450.54,13013,9.31,72554.0,-8.35,-23.49,-25.97,0,*5B
1514329451.82,13014,9.31,72556.8,-8.35,-23.49,-26.13,0,*53
1514329453.11,13015,9.31,72554.0,-8.35,-23.49,-26.13,0,*52
1514329454.35,13016,9.31,72558.5,-8.37,-23.49,-26.07,0,*56
1514329455.58,13017,9.31,72552.8,-8.37,-23.49,-26.07,0,*57
1514329456.85,13018,9.31,72552.3,-8.37,-23.49,-26.13,0,*5D
1514329458.11,13019,9.31,72556.3,-8.35,-23.53,-26.07,0,*50
1514329459.35,13020,9.31,72554.3,-8.37,-23.53,-26.07,0,*58
1514329460.61,13021,9.31,72552.8,-8.35,-23.49,-26.07,0,*50
1514329461.84,13022,9.31,72552.8,-8.37,-23.49,-25.91,0,*5D
1514329463.1,13023,9.31,72552.5,-8.35,-23.53,-25.91,0,*55
1514329464.4,13024,9.31,72554.8,-8.35,-23.53,-25.97,0,*54
1514329465.66,13025,9.31,72554.5,-8.37,-23.53,-25.97,0,*57
1514329466.92,13026,9.31,72556.5,-8.35,-23.65,-26.07,0,*59
1514329468.18,13027,9.31,72554.8,-8.37,-23.65,-25.97,0,*50
1514329469.42,13028,9.31,72554.5,-8.37,-23.65,-25.91,0,*59
1514329470.67,13029,9.31,72556.5,-8.35,-23.69,-25.91,0,*56
1514329471.93,13030,9.31,72556.0,-8.37,-23.65,-25.97,0,*56
1514329473.16,13031,9.31,72556.5,-8.37,-23.65,-25.91,0,*51
1514329474.43,13032,9.31,72556.0,-8.37,-23.65,-25.97,0,*54
1514329475.65,13033,9.31,72556.0,-8.37,-23.69,-25.91,0,*5F
1514329476.89,13034,9.31,72556.5,-8.37,-23.53,-25.91,0,*51
1514329478.15,13035,9.31,72556.8,-8.37,-23.53,-25.81,0,*51
1514329479.41,13036,9.31,72552.8,-8.37,-23.65,-25.81,0,*57
1514329480.67,13037,9.31,72554.8,-8.37,-23.65,-25.81,0,*56
1514329481.9,13038,9.31,72556.0,-8.37,-23.69,-25.91,0,*54
1514329483.13,13039,9.31,72554.8,-8.37,-23.65,-25.91,0,*59
1514329484.38,13040,9.31,72556.8,-8.35,-23.69,-25.91,0,*59
1514329485.64,13041,9.31,72552.8,-8.37,-23.65,-25.75,0,*5C
1514329486.9,13042,9.31,72554.3,-8.39,-23.59,-25.81,0,*55
1514329488.16,13043,9.31,72552.0,-8.37,-23.65,-25.81,0,*55
1514329489.43,13044,9.31,72554.8,-8.39,-23.75,-25.81,0,*5D
1514329490.68,13045,9.31,72558.3,-8.37,-23.69,-25.75,0,*54
1514329491.95,13046,9.31,72552.0,-8.37,-23.65,-25.75,0,*5B
1514329493.23,13047,9.31,72556.0,-8.39,-23.69,-25.81,0,*53
1514329494.47,13048,9.31,72554.3,-8.37,-23.53,-25.65,0,*51
1514329495.74,13049,9.31,72556.3,-8.39,-23.75,-25.71,0,*5F
1514329496.99,13050,9.31,72558.3,-8.39,-23.69,-25.65,0,*5F
1514329498.25,13051,9.31,72552.5,-8.39,-23.69,-25.65,0,*5E
1514329499.49,13052,9.31,72552.0,-8.37,-23.65,-25.61,0,*5B
1514329500.72,13053,9.31,72554.3,-8.37,-23.69,-25.65,0,*52
1514329501.98,13054,9.31,72554.5,-8.41,-23.69,-25.71,0,*51
1514329503.22,13055,9.31,72552.5,-8.37,-23.65,-25.61,0,*5C
1514329504.45,13056,9.31,72558.8,-8.37,-23.69,-25.65,0,*57
1514329505.7,13057,9.31,72556.3,-8.37,-23.65,-25.61,0,*5E
1514329506.93,13058,9.31,72556.3,-8.37,-23.69,-25.61,0,*5D
1514329508.21,13059,9.31,72552.3,-8.39,-23.69,-25.55,0,*55
1514329509.47,13060,9.31,72552.5,-8.39,-23.69,-25.65,0,*5C
1514329510.71,13061,9.31,72556.0,-8.39,-23.75,-25.65,0,*50
1514329511.98,13062,9.31,72556.5,-8.39,-23.75,-25.55,0,*50
1514329513.22,13063,9.31,72554.8,-8.39,-23.59,-25.49,0,*52
1514329514.47,13064,9.31,72554.3,-8.39,-23.75,-25.49,0,*5B
1514329515.71,13065,9.31,72556.0,-8.39,-23.75,-25.49,0,*5A
1514329516.99,13066,9.31,72554.0,-8.39,-23.69,-25.45,0,*58
1514329518.26,13067,9.31,72556.3,-8.39,-23.75,-25.55,0,*55
1514329519.52,13068,9.31,72556.0,-8.39,-23.69,-25.49,0,*5A
1514329520.76,13069,9.31,72554.5,-8.39,-23.75,-25.49,0,*56
1514329522.02,13070,9.31,72556.3,-8.39,-23.69,-25.49,0,*53
1514329523.26,13071,9.31,72554.3,-8.37,-23.65,-25.39,0,*57
1514329524.51,13072,9.31,72552.8,-8.39,-23.69,-25.35,0,*5A
1514329525.75,13073,9.31,72554.5,-8.39,-23.75,-25.49,0,*5D
1514329527.0,13074,9.31,72554.5,-8.37,-23.69,-25.45,0,*55
1514329528.24,13075,9.31,72554.8,-8.39,-23.75,-25.35,0,*50
1514329529.49,13076,9.31,72554.5,-8.39,-23.69,-25.35,0,*5E
1514329530.73,13077,9.31,72554.0,-8.39,-23.75,-25.35,0,*52
1514329531.97,13078,9.31,72558.3,-8.37,-23.49,-25.23,0,*5B
1514329533.2,13079,9.31,72552.5,-8.37,-23.65,-25.23,0,*54
1514329534.43,13080,9.31,72556.5,-8.41,-23.69,-25.19,0,*56
1514329535.66,13081,9.31,72554.3,-8.37,-23.53,-25.23,0,*56
1514329536.93,13082,9.31,72552.3,-8.39,-23.59,-25.29,0,*5B
1514329538.16,13083,9.31,72552.0,-8.37,-23.53,-25.23,0,*54
1514329539.4,13084,9.31,72554.0,-8.37,-23.53,-25.23,0,*53
1514329540.64,13085,9.31,72558.8,-8.37,-23.49,-25.13,0,*5A
1514329541.87,13086,9.31,72554.8,-8.37,-23.49,-24.97,0,*54
1514329543.11,13087,9.31,72554.0,-8.37,-23.65,-25.13,0,*56
1514329544.34,13088,9.31,72552.8,-8.37,-23.65,-25.13,0,*59
1514329545.58,13089,9.31,72552.5,-8.37,-23.65,-25.13,0,*58
1514329546.82,13090,9.31,72558.5,-8.37,-23.53,-25.13,0,*55
1514329548.08,13091,9.31,72556.8,-8.35,-23.65,-24.97,0,*5E
1514329549.31,13092,9.31,72552.5,-8.37,-23.53,-24.97,0,*5A
1514329550.55,13093,9.31,72554.5,-8.37,-23.53,-24.97,0,*5B
1514329551.78,13094,9.31,72554.8,-8.37,-23.49,-24.97,0,*57
1514329553.05,13095,9.31,72554.5,-8.35,-23.53,-25.09,0,*59
1514329554.28,13096,9.31,72552.3,-8.37,-23.53,-24.97,0,*5E
1514329555.52,13097,9.31,72556.0,-8.37,-23.53,-24.97,0,*5F
1514329556.75,13098,9.31,72556.3,-8.37,-23.53,-24.97,0,*50
1514329558.01,13099,9.31,72554.8,-8.35,-23.65,-24.97,0,*56
1514329559.25,13100,9.31,72556.3,-8.37,-23.53,-24.97,0,*50
1514329560.5,13101,9.31,72554.8,-8.35,-23.49,-24.97,0,*58
1514329561.74,13102,9.31,72554.3,-8.37,-23.49,-24.93,0,*5D
1514329562.97,13103,9.31,72554.8,-8.37,-23.53,-24.93,0,*57
1514329564.23,13104,9.31,72558.8,-8.37,-23.49,-24.83,0,*5A
1514329565.47,13105,9.31,72556.5,-8.37,-23.53,-24.93,0,*51
1514329566.72,13106,9.31,72558.0,-8.35,-23.49,-24.93,0,*5B
1514329567.98,13107,9.31,72556.8,-8.35,-23.49,-24.93,0,*5A
1514329569.27,13108,9.31,72558.8,-8.35,-23.49,-24.83,0,*54
1514329570.55,13109,9.31,72558.5,-8.35,-23.49,-24.83,0,*55
1514329571.79,13110,9.31,72556.0,-8.37,-23.49,-24.77,0,*54
1514329573.05,13111,9.31,72556.0,-8.35,-23.49,-24.77,0,*57
1514329574.29,13112,9.31,72556.5,-8.37,-23.53,-24.77,0,*5D
1514329575.49,13113,9.31,72554.8,-8.37,-23.39,-24.77,0,*50
1514329576.77,13114,9.31,72556.5,-8.35,-23.33,-24.67,0,*5E
1514329578.02,13115,9.31,72558.0,-8.35,-23.39,-24.67,0,*55
1514329579.25,13116,9.31,72556.3,-8.37,-23.33,-24.61,0,*58
1514329580.48,13117,9.31,72556.8,-8.37,-23.39,-24.67,0,*55
1514329581.74,13118,9.31,72556.3,-8.35,-23.33,-24.61,0,*54
1514329583.0,13119,9.31,72556.0,-8.35,-23.33,-24.61,0,*55
1514329584.26,13120,9.31,72556.0,-8.35,-23.33,-24.51,0,*5C
1514329585.52,13121,9.31,72558.8,-8.35,-23.33,-24.51,0,*5D
1514329586.75,13122,9.31,72554.0,-8.37,-23.33,-24.61,0,*5F
1514329588.01,13123,9.31,72558.0,-8.35,-23.33,-24.51,0,*5F
1514329589.27,13124,9.31,72556.8,-8.35,-23.33,-24.47,0,*5F
1514329590.5,13125,9.31,72556.0,-8.37,-23.33,-24.51,0,*5B
1514329591.76,13126,9.31,72556.0,-8.35,-23.33,-24.51,0,*5A
1514329593.02,13127,9.31,72558.8,-8.35,-23.29,-24.61,0,*53
1514329594.28,13128,9.31,72554.0,-8.35,-23.29,-24.51,0,*5F
1514329595.54,13129,9.31,72554.0,-8.35,-23.33,-24.51,0,*55
1514329596.8,13130,9.31,72556.0,-8.35,-23.19,-24.51,0,*55
1514329598.06,13131,9.31,72556.0,-8.35,-23.13,-24.41,0,*5F
1514329599.34,13132,9.31,72554.5,-8.35,-23.19,-24.41,0,*56
1514329600.55,13133,9.31,72556.5,-8.33,-23.09,-24.35,0,*53
1514329601.76,13134,9.31,72558.0,-8.33,-23.13,-24.35,0,*5F
1514329602.99,13135,9.31,72556.5,-8.33,-23.13,-24.25,0,*5F
1514329604.23,13136,9.31,72556.0,-8.33,-23.09,-24.21,0,*53
1514329605.47,13137,9.31,72556.0,-8.35,-23.13,-24.31,0,*5E
1514329606.71,13138,9.31,72558.0,-8.29,-22.97,-24.21,0,*50
1514329607.95,13139,9.31,72556.5,-8.33,-23.09,-24.21,0,*5C
1514329609.19,13140,9.31,72554.5,-8.33,-23.09,-24.25,0,*56
1514329610.44,13141,9.31,72556.3,-8.33,-22.97,-24.21,0,*55
1514329611.68,13142,9.31,72558.5,-8.33,-22.97,-24.21,0,*56
1514329612.92,13143,9.31,72554.3,-8.29,-22.97,-24.21,0,*5C
1514329614.15,13144,9.31,72556.0,-8.33,-22.97,-24.11,0,*53
1514329615.39,13145,9.31,72558.3,-8.29,-23.13,-24.25,0,*53
1514329616.64,13146,9.25,72552.5,-8.29,-22.97,-24.21,0,*59
1514329617.87,13147,9.31,72556.8,-8.33,-22.93,-24.11,0,*54
1514329619.1,13148,9.31,72556.8,-8.29,-22.83,-24.11,0,*51
1514329620.31,13149,9.31,72558.8,-8.29,-22.83,-24.05,0,*55
1514329621.52,13150,9.31,72556.0,-8.29,-22.93,-24.05,0,*5C
1514329622.73,13151,9.31,72552.5,-8.29,-22.83,-23.89,0,*5F
1514329623.94,13152,9.31,72556.8,-8.29,-22.83,-24.05,0,*5F
1514329625.16,13153,9.31,72556.0,-8.25,-22.87,-23.99,0,*54
1514329626.43,13154,9.31,72558.5,-8.25,-22.77,-23.85,0,*51
1514329627.68,13155,9.31,72558.5,-8.27,-22.73,-23.89,0,*5A
1514329628.96,13156,9.31,72556.0,-8.27,-22.73,-23.85,0,*55
1514329630.22,13157,9.31,72556.0,-8.25,-22.73,-23.85,0,*56
1514329631.47,13158,9.31,72556.0,-8.25,-22.73,-23.85,0,*59
1514329632.71,13159,9.31,72556.0,-8.23,-22.67,-23.79,0,*58
1514329633.93,13160,9.31,72556.8,-8.25,-22.73,-23.89,0,*5E
1514329635.19,13161,9.31,72556.0,-8.25,-22.77,-23.99,0,*5A
1514329636.46,13162,9.31,72556.5,-8.25,-22.77,-23.85,0,*54
1514329637.71,13163,9.31,72556.0,-8.27,-22.63,-23.85,0,*52
1514329638.95,13164,9.31,72552.8,-8.23,-22.57,-23.79,0,*55
1514329640.21,13165,9.31,72554.5,-8.23,-22.67,-23.85,0,*54
1514329641.47,13166,9.31,72552.5,-8.23,-22.67,-23.85,0,*57
1514329642.7,13167,9.31,72556.0,-8.23,-22.67,-23.79,0,*55
1514329643.93,13168,9.31,72558.8,-8.23,-22.67,-23.79,0,*5A
1514329645.19,13169,9.31,72554.8,-8.25,-22.73,-23.85,0,*5B
1514329646.43,13170,9.31,72558.3,-8.23,-22.57,-23.79,0,*50
1514329647.69,13171,9.31,72558.3,-8.23,-22.67,-23.85,0,*51
1514329648.94,13172,9.31,72558.5,-8.23,-22.73,-23.79,0,*54
1514329650.15,13173,9.31,72556.5,-8.21,-22.67,-23.79,0,*52
1514329651.36,13174,9.31,72562.3,-8.21,-22.57,-23.79,0,*56
1514329652.59,13175,9.31,72556.0,-8.23,-22.67,-23.79,0,*56
1514329653.85,13176,9.31,72556.8,-8.23,-22.73,-23.79,0,*50
1514329655.06,13177,9.31,72558.3,-8.21,-22.67,-23.79,0,*56
1514329656.26,13178,9.31,72558.0,-8.21,-22.67,-23.79,0,*59
1514329657.47,13179,9.31,72554.5,-8.21,-22.67,-23.79,0,*58
1514329658.71,13180,9.31,72554.8,-8.21,-22.57,-23.69,0,*5C
1514329659.94,13181,9.31,72558.3,-8.21,-22.67,-23.69,0,*5E
1514329661.15,13182,9.31,72560.5,-8.21,-22.53,-23.79,0,*5B
1514329662.37,13183,9.31,72554.3,-8.21,-22.57,-23.79,0,*5E
1514329663.58,13184,9.31,72558.8,-8.21,-22.57,-23.79,0,*59
1514329664.84,13185,9.31,72556.8,-8.19,-22.53,-23.65,0,*5A
1514329666.07,13186,9.31,72558.3,-8.19,-22.53,-23.59,0,*56
1514329667.3,13187,9.31,72556.3,-8.19,-22.67,-23.79,0,*52
1514329668.55,13188,9.31,72556.8,-8.19,-22.63,-23.65,0,*54
1514329669.81,13189,9.31,72556.8,-8.19,-22.53,-23.65,0,*56
1514329671.07,13190,9.31,72558.5,-8.19,-22.47,-23.59,0,*54
1514329672.35,13191,9.31,72560.8,-8.19,-22.47,-23.65,0,*5A
1514329673.62,13192,9.31,72556.5,-8.19,-22.47,-23.59,0,*56
1514329674.87,13193,9.31,72554.5,-8.19,-22.53,-23.65,0,*5D
1514329676.13,13194,9.31,72558.3,-8.17,-22.47,-23.65,0,*51
1514329677.37,13195,9.31,72554.5,-8.17,-22.53,-23.65,0,*55
1514329678.58,13196,9.31,72556.0,-8.17,-22.53,-23.75,0,*57
1514329679.79,13197,9.31,72556.8,-8.17,-22.53,-23.59,0,*58
1514329681.02,13198,9.31,72556.0,-8.17,-22.63,-23.65,0,*5B
1514329682.28,13199,9.31,72554.3,-8.17,-22.47,-23.65,0,*5C
1514329683.49,13200,9.31,72558.0,-8.17,-22.53,-23.75,0,*5B
1514329684.7,13201,9.31,72556.8,-8.17,-22.67,-23.89,0,*5E
1514329685.9,13202,9.31,72558.0,-8.17,-22.67,-23.79,0,*52
1514329687.11,13203,9.31,72558.0,-8.17,-22.63,-23.79,0,*57
1514329688.31,13204,9.31,72554.3,-8.17,-22.63,-23.79,0,*50
1514329689.51,13205,9.31,72554.3,-8.17,-22.63,-23.75,0,*5D
1514329690.72,13206,9.31,72554.0,-8.17,-22.63,-23.79,0,*52
1514329691.92,13207,9.31,72556.5,-8.17,-22.67,-23.79,0,*57
1514329693.13,13208,9.31,72558.3,-8.17,-22.63,-23.79,0,*5C
1514329694.38,13209,9.31,72556.5,-8.17,-22.77,-23.95,0,*5A
1514329695.65,13210,9.31,72558.0,-8.15,-22.63,-23.85,0,*54
1514329696.85,13211,9.31,72554.3,-8.17,-22.67,-23.89,0,*5F
1514329698.11,13212,9.31,72552.8,-8.17,-22.77,-23.95,0,*50
1514329699.36,13213,9.31,72556.5,-8.17,-22.77,-23.95,0,*51
1514329700.6,13214,9.31,72556.5,-8.17,-22.77,-23.89,0,*5B
1514329701.86,13215,9.31,72560.0,-8.15,-22.63,-23.85,0,*51
1514329703.13,13216,9.31,72558.8,-8.15,-22.57,-23.85,0,*55
1514329704.37,13217,9.31,72558.5,-8.15,-22.63,-23.75,0,*5C
1514329705.6,13218,9.31,72554.0,-8.15,-22.63,-23.89,0,*50
1514329706.86,13219,9.31,72554.5,-8.13,-22.73,-23.85,0,*5A